| time (UTC) | temp C | wind direction | speed KPH | gust KPH | rain 1hr cm | rain 24hr cm | rain mn cm | humidity % | barometer mb |
| 20260905201604 | 26 | 53 | 11.3 | 19.3 | 0.00 | 0.00 | 0.00 | 74 | 1015.3 |
| 20260905200127 | 26 | 36 | 4.8 | 17.7 | 0.00 | 0.00 | 0.00 | 71 | 1015.3 |
| 20260905194601 | 26 | 0 | 3.2 | 8.0 | 0.00 | 0.00 | 0.00 | 72 | 1015.4 |
| 20260905193108 | 26 | 61 | 6.4 | 19.3 | 0.00 | 0.00 | 0.00 | 71 | 1015.4 |
| 20260905191602 | 26 | 105 | 4.8 | 17.7 | 0.00 | 0.00 | 0.00 | 72 | 1015.5 |
| 20260905190104 | 26 | 79 | 4.8 | 11.3 | 0.00 | 0.00 | 0.00 | 74 | 1015.5 |
| 20260905184609 | 26 | 25 | 1.6 | 8.0 | 0.00 | 0.00 | 0.00 | 75 | 1015.5 |
| 20260905183108 | 26 | 73 | 6.4 | 12.9 | 0.00 | 0.00 | 0.00 | 77 | 1015.6 |
| 20260905181602 | 26 | 44 | 4.8 | 11.3 | 0.00 | 0.00 | 0.00 | 77 | 1015.6 |
| 20260905174606 | 25 | 0 | 0.0 | 1.6 | 0.00 | 0.00 | 0.00 | 82 | 1015.9 |
| 20260905173104 | 24 | 58 | 3.2 | 4.8 | 0.00 | 0.00 | 0.00 | 83 | 1016.1 |
| 20260905171603 | 23 | 82 | 0.0 | 4.8 | 0.00 | 0.00 | 0.00 | 84 | 1016.1 |
| 20260905170101 | 23 | 46 | 1.6 | 6.4 | 0.00 | 0.00 | 0.00 | 85 | 1016.0 |
| 20260905164602 | 23 | 46 | 3.2 | 6.4 | 0.00 | 0.00 | 0.00 | 85 | 1016.1 |
| 20260905163058 | 23 | 94 | 3.2 | 8.0 | 0.00 | 0.00 | 0.00 | 85 | 1016.1 |
| 20260905161604 | 23 | 50 | 0.0 | 3.2 | 0.00 | 0.00 | 0.00 | 86 | 1016.1 |
| 20260905160100 | 23 | 0 | 0.0 | 9.7 | 0.00 | 0.00 | 0.00 | 87 | 1016.2 |
| 20260905154605 | 22 | 82 | 1.6 | 8.0 | 0.00 | 0.48 | 0.00 | 90 | 1016.1 |
| 20260905153105 | 22 | 90 | 3.2 | 12.9 | 0.00 | 0.48 | 0.00 | 90 | 1016.0 |
| 20260905151633 | 22 | 59 | 6.4 | 16.1 | 0.00 | 0.48 | 0.00 | 91 | 1016.0 |
| 20260905150104 | 22 | 105 | 3.2 | 9.7 | 0.00 | 0.48 | 0.00 | 91 | 1015.7 |
| 20260905144559 | 22 | 44 | 3.2 | 8.0 | 0.00 | 0.48 | 0.00 | 91 | 1015.5 |
| 20260905143105 | 22 | 41 | 3.2 | 9.7 | 0.00 | 0.48 | 0.00 | 91 | 1015.4 |
| 20260905141602 | 22 | 77 | 3.2 | 11.3 | 0.00 | 0.48 | 0.00 | 91 | 1015.1 |
| 20260905140058 | 22 | 72 | 11.3 | 19.3 | 0.00 | 0.48 | 0.00 | 92 | 1015.0 |
| 20260905134600 | 22 | 79 | 4.8 | 11.3 | 0.00 | 0.48 | 0.00 | 93 | 1014.9 |
| 20260905133056 | 21 | 60 | 1.6 | 9.7 | 0.00 | 0.48 | 0.00 | 94 | 1015.1 |
| 20260905131604 | 21 | 44 | 3.2 | 9.7 | 0.00 | 0.48 | 0.00 | 95 | 1015.2 |
| 20260905130059 | 21 | 86 | 1.6 | 4.8 | 0.00 | 0.48 | 0.00 | 95 | 1015.6 |
| 20260905124601 | 21 | 78 | 1.6 | 6.4 | 0.00 | 0.48 | 0.00 | 95 | 1015.0 |
| 20260905123114 | 21 | 65 | 3.2 | 9.7 | 0.00 | 0.48 | 0.00 | 96 | 1014.9 |
| 20260905121559 | 21 | 81 | 6.4 | 14.5 | 0.00 | 0.48 | 0.00 | 96 | 1014.4 |
| 20260905120106 | 21 | 32 | 4.8 | 9.7 | 0.00 | 0.48 | 0.00 | 96 | 1014.2 |
| 20260905114605 | 20 | 56 | 4.8 | 11.3 | 0.00 | 0.51 | 0.00 | 96 | 1014.1 |
| 20260905113107 | 20 | 33 | 3.2 | 9.7 | 0.00 | 0.51 | 0.00 | 96 | 1013.7 |
| 20260905111604 | 20 | 94 | 4.8 | 11.3 | 0.00 | 0.51 | 0.00 | 96 | 1013.4 |
| 20260905110058 | 20 | 86 | 3.2 | 8.0 | 0.00 | 0.51 | 0.00 | 96 | 1013.3 |
| 20260905104605 | 20 | 47 | 1.6 | 6.4 | 0.00 | 0.61 | 0.00 | 96 | 1013.1 |
| 20260905103106 | 20 | 68 | 1.6 | 4.8 | 0.00 | 0.61 | 0.00 | 96 | 1013.2 |
| 20260905101559 | 20 | 81 | 0.0 | 3.2 | 0.00 | 0.61 | 0.00 | 96 | 1013.2 |
| 20260905100109 | 20 | 0 | 0.0 | 1.6 | 0.00 | 0.61 | 0.00 | 96 | 1013.0 |
| 20260905094607 | 20 | 0 | 0.0 | 0.0 | 0.00 | 0.61 | 0.00 | 96 | 1013.0 |
| 20260905093104 | 20 | 0 | 0.0 | 1.6 | 0.00 | 0.61 | 0.00 | 96 | 1013.0 |
| 20260905091604 | 20 | 0 | 0.0 | 1.6 | 0.00 | 0.61 | 0.00 | 96 | 1013.0 |
| 20260905090059 | 20 | 0 | 0.0 | 3.2 | 0.00 | 0.61 | 0.00 | 96 | 1013.1 |
| 20260905084609 | 20 | 0 | 0.0 | 0.0 | 0.00 | 0.61 | 0.00 | 95 | 1012.9 |
| 20260905083102 | 20 | 0 | 0.0 | 0.0 | 0.00 | 0.61 | 0.00 | 95 | 1013.0 |
| 20260905081557 | 20 | 0 | 0.0 | 0.0 | 0.00 | 0.61 | 0.00 | 95 | 1012.9 |
| 20260905080139 | 20 | 0 | 0.0 | 0.0 | 0.00 | 0.61 | 0.00 | 95 | 1013.0 |
| 20260905074557 | 21 | 0 | 0.0 | 0.0 | 0.00 | 0.61 | 0.00 | 95 | 1013.1 |
| 20260905073100 | 21 | 0 | 0.0 | 0.0 | 0.00 | 0.61 | 0.00 | 95 | 1013.1 |
| 20260905071606 | 21 | 0 | 0.0 | 1.6 | 0.00 | 0.61 | 0.00 | 95 | 1013.1 |
| 20260905070101 | 21 | 0 | 0.0 | 3.2 | 0.00 | 0.61 | 0.00 | 95 | 1013.0 |
| 20260905064603 | 21 | 0 | 0.0 | 0.0 | 0.00 | 0.61 | 0.00 | 94 | 1013.0 |
| 20260905063059 | 21 | 0 | 0.0 | 0.0 | 0.00 | 0.61 | 0.00 | 94 | 1012.9 |
| 20260905061600 | 22 | 0 | 0.0 | 0.0 | 0.00 | 0.61 | 0.00 | 95 | 1013.0 |
| 20260905060108 | 21 | 0 | 0.0 | 0.0 | 0.00 | 0.61 | 0.00 | 94 | 1013.0 |
| 20260905054606 | 21 | 0 | 0.0 | 1.6 | 0.00 | 0.61 | 0.00 | 94 | 1013.2 |
| 20260905053110 | 22 | 0 | 0.0 | 1.6 | 0.00 | 0.61 | 0.00 | 93 | 1013.2 |
| 20260905051559 | 22 | 72 | 0.0 | 1.6 | 0.00 | 0.61 | 0.00 | 93 | 1013.4 |
| 20260905044607 | 22 | 50 | 0.0 | 1.6 | 0.00 | 0.61 | 0.61 | 93 | 1013.6 |
| 20260905043111 | 22 | 0 | 0.0 | 1.6 | 0.00 | 0.61 | 0.61 | 92 | 1013.5 |
| 20260905041602 | 22 | 0 | 0.0 | 3.2 | 0.00 | 0.61 | 0.61 | 93 | 1013.4 |
| 20260905040105 | 22 | 84 | 0.0 | 1.6 | 0.00 | 0.61 | 0.61 | 92 | 1013.3 |
| 20260905034603 | 22 | 0 | 1.6 | 4.8 | 0.00 | 0.61 | 0.61 | 92 | 1013.2 |
| 20260905033058 | 22 | 93 | 1.6 | 4.8 | 0.00 | 0.61 | 0.61 | 92 | 1013.4 |
| 20260905031557 | 22 | 110 | 4.8 | 6.4 | 0.00 | 0.61 | 0.61 | 91 | 1013.5 |
| 20260905030100 | 23 | 82 | 1.6 | 6.4 | 0.00 | 0.61 | 0.61 | 91 | 1013.5 |
| 20260905024557 | 23 | 65 | 1.6 | 8.0 | 0.00 | 0.61 | 0.61 | 90 | 1013.6 |
| 20260905023101 | 23 | 83 | 3.2 | 8.0 | 0.00 | 0.61 | 0.61 | 89 | 1013.7 |
| 20260905021600 | 23 | 88 | 4.8 | 8.0 | 0.00 | 0.61 | 0.61 | 88 | 1013.7 |
| 20260905020058 | 23 | 89 | 4.8 | 9.7 | 0.00 | 0.61 | 0.61 | 88 | 1013.3 |
| 20260905014557 | 24 | 82 | 1.6 | 4.8 | 0.00 | 0.61 | 0.61 | 88 | 1013.4 |
| 20260905013100 | 24 | 58 | 8.0 | 14.5 | 0.00 | 0.61 | 0.61 | 87 | 1013.3 |
| 20260905011619 | 25 | 68 | 8.0 | 12.9 | 0.00 | 0.61 | 0.61 | 87 | 1013.5 |
| 20260905010058 | 25 | 99 | 9.7 | 14.5 | 0.00 | 0.61 | 0.61 | 86 | 1013.0 |
| 20260905004600 | 26 | 79 | 9.7 | 11.3 | 0.00 | 0.61 | 0.61 | 87 | 1012.5 |
| 20260905003102 | 26 | 79 | 0.0 | 1.6 | 0.00 | 0.61 | 0.61 | 89 | 1012.2 |
| 20260905001610 | 26 | 0 | 0.0 | 1.6 | 0.00 | 0.61 | 0.61 | 90 | 1011.9 |
| 20260905000104 | 27 | 0 | 0.0 | 1.6 | 0.00 | 0.61 | 0.61 | 90 | 1011.9 |
| 20260904234559 | 27 | 0 | 0.0 | 0.0 | 0.00 | 0.61 | 0.61 | 89 | 1012.1 |
| 20260904233107 | 27 | 0 | 0.0 | 1.6 | 0.00 | 0.61 | 0.61 | 88 | 1012.1 |
| 20260904231601 | 28 | 0 | 0.0 | 0.0 | 0.00 | 0.61 | 0.61 | 86 | 1011.6 |
| 20260904230101 | 28 | 0 | 0.0 | 0.0 | 0.00 | 0.61 | 0.61 | 83 | 1011.8 |
| 20260904224600 | 28 | 0 | 0.0 | 0.0 | 0.00 | 0.61 | 0.61 | 82 | 1011.7 |
| 20260904223103 | 28 | 0 | 0.0 | 0.0 | 0.00 | 0.61 | 0.61 | 80 | 1011.7 |
| 20260904221605 | 29 | 0 | 0.0 | 1.6 | 0.00 | 0.61 | 0.61 | 77 | 1011.7 |
| 20260904220109 | 29 | 248 | 1.6 | 4.8 | 0.00 | 0.61 | 0.61 | 75 | 1011.7 |
| 20260904214603 | 30 | 250 | 3.2 | 12.9 | 0.00 | 0.61 | 0.61 | 74 | 1011.7 |
| 20260904213102 | 29 | 283 | 1.6 | 8.0 | 0.00 | 0.61 | 0.61 | 75 | 1011.7 |
| 20260904211606 | 30 | 238 | 4.8 | 14.5 | 0.00 | 0.61 | 0.61 | 72 | 1011.7 |
| 20260904210104 | 29 | 273 | 1.6 | 8.0 | 0.00 | 0.61 | 0.61 | 75 | 1011.5 |
| 20260904204601 | 29 | 252 | 0.0 | 3.2 | 0.00 | 0.61 | 0.61 | 75 | 1011.5 |
| 20260904203102 | 29 | 236 | 1.6 | 6.4 | 0.00 | 0.61 | 0.61 | 76 | 1011.6 |